FENGYUN 1C DEB

Satellite information

Favourite Embed

Satellite Type and Status

DEBRISIN ORBIT

Key statistics

Satellite FENGYUN 1C DEB at a glance.

Uptime

9555

Days in orbit

Revolutions

≈ 14.2

Per day

Orbit

SSO

Sun Synchronous Orbit

Inclination

99.4

Latest

Satellite identification and parameters

Extended collection of information and parameters for FENGYUN 1C DEB.

Object identification

Identified? True

Debris? True

Object name: FENGYUN 1C DEB

International designator: 1999-025QA

Object number (NORAD): 30073

Object ID (CCSDS): 30073

Country: PEOPLES REPUBLIC OF CHINA (PRC)

Current information (Y/N): Y

RCS size: SMALL

Orbital parameters

Period: 101.596 minutes

Inclination: 99.3979 deg

SMA: 7212.361 km

Apoapsis: 874.092 km

Periapsis: 794.361 km

RAAN: 150.0833 deg

Eccentricy: 0.0055274

Argument of periapsis: 11.0233 deg

Mean anomaly: 144.6534 deg

Mean motion: 14.17380842 rev/day

Mean motion (dot): 0.0000194 rev/day2

B* drag term: 0.00096796 1/REarth

Two-line elements (TLE)

Creation date: July 5, 2025, 5:45 p.m.

Reference frame: TEME

Reference center: EARTH

Epoch: July 5, 2025, 8:33 a.m. UTC

TLE line 0: 0 FENGYUN 1C DEB

TLE line 1: 1 30073U 99025QA 25186.35678938 .00001940 00000-0 96796-3 0 9993

TLE line 2: 2 30073 99.3979 150.0833 0055274 11.0233 144.6534 14.17380842946525

Live tracking on map

Real-time ground track for satellite FENGYUN 1C DEB.

In-orbit conjunctions

A list of the most updated potential collisions computed for object FENGYUN 1C DEB.

Target Orbit TCA Probability of collision Miss distance Type
COSMOS 1275 DEB LEO 2025-03-09 07:45:18 0.0002352134 131.0 (m) DEBRIS
COSMOS 252 DEB * LEO 2024-11-12 01:56:05 0.0002275506 780.0 (m) DEBRIS
METEOR 1-24 LEO 2024-10-15 22:52:45 0.0001069729 766.0 (m) PAYLOAD
METEOR 2-12 DEB LEO 2024-07-27 06:17:54 0.0001236959 72.0 (m) DEBRIS

Associated space launch

Chinese polar orbiting meteorological satellite

FENGYUN 1C DEB was lifted into orbit during the mission ‘Long March 4B | Feng Yun 1C’, on board a Long March 4B space rocket.

The launch took place on May 10, 1999, 1:33 a.m. from Launch Complex 7.

For more information about the launch, click the button.

Launch to space Long March 4B | Feng Yun 1C
Long March 4B | Feng Yun 1C

Agency: N/A

Status: Launch Successful

Launch date: May 10, 1999, 1:33 a.m. UTC

Rocket: Long March 4B

Launch pad: Launch Complex 7

Location: Taiyuan Satellite Launch Center, People's Republic of China

...

Latest news about this satellite

There are no fresh news available about this satellite. Check back as we update our databases every day.


Newsletter sign-up

Weekly statistics, charts and insights to help you stay on top of the space industry.